SCP
0 0 0 0 0 0 0 0 0 0 0 -0 -0 -0 -0 -0 -0 -0 0 0 0 0 0 0 0 0 0 0 0 0 0 0
0 0 0 0 0 0 0 0 1 1 0 0 0 0 -0 -0 -0 0 0 0 0 0 0 0 0 0 0 0 0 0 0 0
-0 -0 -0 0 0 -0 -0 0 1 1 1 0 0 0 0 0 0 0 0 0 0 0 0 0 0 0 0 0 0 0 0 0
-0 -0 0 0 0 0 0 -0 0 1 1 1 1 1 1 1 0 0 0 0 0 0 0 0 0 0 0 0 0 0 0 0
-0 0 0 0 0 0 1 1 0 1 1 1 1 1 1 0 0 0 0 0 1 1 0 0 0 0 0 0 0 0 0 0
-0 0 0 0 0 0 0 0 1 1 2 2 1 0 1 0 0 0 1 1 1 1 0 0 0 0 0 0 0 0 0 0
0 0 0 0 0 0 0 1 0 2 2 1 1 1 0 0 0 0 0 1 0 0 0 0 1 0 0 0 0 0 1 1
0 0 0 0 0 0 0 1 3 2 2 2 1 1 0 0 0 0 0 0 0 0 0 1 0 0 0 0 0 0 1 1
0 0 0 0 0 0 0 0 1 5 0 0 0 1 1 1 0 0 0 1 0 0 0 1 0 0 0 0 1 2 2 1
0 0 0 0 0 0 0 0 0 0 3 6 3 1 0 1 0 1 1 1 0 1 1 1 2 0 1 0 2 3 2 3
0 0 0 0 0 0 0 0 0 0 0 2 7 7 6 2 1 1 0 1 1 1 1 2 2 1 2 3 3 4 3 3
0 0 0 0 0 0 0 0 0 0 0 0 2 3 3 3 3 2 1 1 1 2 2 2 3 3 3 4 3 3 2 4
0 0 0 0 0 0 0 0 0 0 0 0 0 1 1 2 4 3 5 3 1 1 2 2 3 3 4 6 4 4 3 2
0 0 0 0 0 0 0 0 0 0 0 0 0 0 1 1 2 4 4 4 3 3 3 4 3 3 3 4 5 4 3 3
0 0 0 0 0 0 0 0 0 0 0 0 0 0 1 1 2 1 3 3 3 5 4 4 3 3 4 4 4 3 3 3
0 0 0 0 0 0 0 0 0 0 0 0 0 0 0 0 1 1 1 1 2 5 4 3 3 4 3 4 4 3 2 2
0 0 0 0 0 0 0 0 0 0 0 0 0 0 0 0 3 3 1 3 3 5 3 3 2 2 3 5 3 2 2 3
0 0 0 0 0 0 0 0 0 0 0 0 0 0 0 0 1 3 2 3 3 4 2 3 2 3 3 4 3 2 3 4
0 0 0 0 0 0 0 0 0 0 0 0 0 0 0 0 0 1 1 2 2 2 2 3 3 3 3 4 3 3 3 4
0 0 0 0 0 0 0 0 0 0 0 0 0 0 0 0 0 1 1 1 1 1 2 2 2 2 3 2 3 4 3 3
Wind_Speed_500mb
27 19 11 23 39 46 51 51 53 56 53 52 60 57 63 64 60 56 53 44 40 39 34 34 34 33 32 29 31 32 29 23
30 20 12 14 30 48 49 48 52 60 53 53 49 52 50 48 53 58 53 50 47 39 33 27 33 28 30 27 25 28 31 29
29 17 13 12 14 33 51 57 59 67 68 49 50 50 49 48 52 59 55 52 49 43 38 36 32 30 29 30 28 29 31 33
23 17 13 15 14 20 36 51 65 69 71 70 68 62 56 59 49 55 60 58 54 45 44 42 40 35 29 27 26 28 32 29
9 7 8 9 17 22 29 41 52 73 77 75 76 74 71 67 62 66 62 57 55 49 43 43 39 35 37 32 33 37 35 32
7 4 7 16 14 26 31 35 41 58 73 67 69 76 76 71 69 72 65 60 56 44 46 51 40 37 36 30 32 34 33 33
11 5 8 16 18 16 17 27 34 32 40 59 71 78 83 82 79 75 63 52 52 42 47 55 41 32 38 32 32 32 33 38
20 16 11 9 17 15 16 20 30 55 49 52 58 62 73 78 83 76 72 71 62 42 38 46 49 45 36 34 29 38 38 35
28 23 21 19 22 20 17 19 24 37 74 73 66 63 60 62 71 83 78 81 74 67 45 72 87 37 29 53 65 54 44 42
25 21 18 19 20 25 24 20 22 29 35 47 82 73 84 71 91 87 87 94 88 77 68 86 84 48 37 71 59 58 43 43
18 17 22 25 26 29 29 27 27 28 30 37 42 47 58 55 79 89 98 93 94 78 94 93 78 60 73 77 60 58 42 42
11 9 15 22 26 27 30 30 30 28 28 33 39 43 51 61 61 60 65 89 91 97 95 81 70 68 72 65 65 60 52 39
4 9 11 17 23 29 31 32 30 30 34 33 36 44 48 48 44 66 49 69 85 87 89 84 72 77 67 74 65 62 47 38
4 9 19 24 23 26 39 41 38 32 32 38 41 42 47 49 52 53 50 47 62 86 82 76 75 74 75 69 65 60 49 42
13 23 22 25 26 26 26 32 46 41 41 37 41 47 48 52 63 61 63 54 54 66 86 83 71 70 64 68 62 53 48 43
21 23 26 30 28 28 32 35 41 49 51 49 46 47 50 49 52 61 68 73 84 86 82 69 59 63 61 63 56 49 43 41
27 31 33 32 27 30 32 35 39 45 53 59 57 55 54 54 54 57 68 78 79 79 75 71 58 57 57 57 51 45 42 39
40 41 39 37 36 35 35 36 39 41 48 58 63 59 56 56 58 59 62 70 77 69 65 61 56 56 54 56 45 42 39 38
44 49 47 45 42 41 43 45 45 44 45 49 52 62 63 57 56 59 59 64 70 64 58 55 54 52 56 55 44 39 39 36
44 48 51 52 50 47 48 45 46 46 46 48 49 51 59 63 60 59 55 54 57 52 47 46 48 50 55 50 46 39 38 36
Wind_Direction_500mb
324 323 333 224 214 201 197 201 194 194 193 198 202 204 209 211 213 216 217 221 227 232 237 242 244 251 256 265 269 268 264 247
300 312 304 269 215 213 208 205 202 196 198 200 201 202 208 209 215 217 219 225 233 234 237 241 253 249 256 251 259 261 265 255
283 289 283 274 231 215 216 216 206 207 201 205 200 204 211 214 220 229 233 235 239 243 242 249 246 252 249 252 256 257 266 267
276 270 284 264 244 242 221 222 232 222 215 212 216 214 217 218 218 228 232 240 246 243 252 258 258 254 249 251 256 261 272 261
273 290 283 263 239 246 266 234 227 232 232 225 228 230 225 236 232 237 240 243 248 257 263 265 259 254 262 269 276 276 274 271
264 335 292 270 244 228 242 256 234 228 234 236 239 240 247 239 240 243 244 246 253 261 259 253 258 255 268 257 264 278 278 271
256 287 284 279 278 259 225 226 227 219 233 239 239 238 240 244 247 247 249 251 257 254 260 264 260 257 264 255 257 263 272 273
277 292 296 300 302 298 270 236 213 220 231 230 236 238 246 248 243 247 252 253 248 240 253 263 283 265 260 273 279 280 267 261
272 284 309 314 308 304 301 271 234 211 228 232 239 240 236 236 249 241 237 253 247 248 242 263 254 254 258 290 277 277 265 262
280 281 296 316 324 306 290 281 271 234 227 230 238 247 250 245 246 241 240 243 241 238 241 243 253 245 283 273 269 273 255 251
284 289 307 313 312 303 298 282 274 270 254 241 239 241 237 244 245 248 252 244 239 238 244 239 251 247 246 251 267 262 238 246
280 296 302 296 298 295 298 290 279 275 268 260 238 239 238 239 247 256 241 244 235 229 235 243 248 262 257 261 271 256 236 230
291 307 313 318 310 299 298 296 290 278 266 258 255 249 248 249 245 241 244 235 234 240 242 253 257 256 260 270 260 248 235 230
282 312 313 309 314 310 293 291 292 290 278 266 259 255 253 245 245 239 238 234 240 237 240 252 256 262 267 259 242 240 235 248
302 309 313 302 295 299 306 298 289 288 285 275 267 262 256 255 244 242 239 234 236 244 247 252 261 259 255 246 238 235 246 249
293 301 305 311 289 292 301 304 300 291 285 282 274 268 265 259 259 250 244 246 245 250 259 261 259 252 253 236 232 235 247 252
297 306 309 308 301 287 295 300 302 298 292 280 273 268 266 262 259 263 255 246 247 256 258 260 254 241 240 228 227 238 244 241
301 302 301 307 303 296 290 293 300 300 294 284 272 265 265 264 260 258 259 252 247 242 248 252 244 231 224 225 224 231 234 227
291 294 296 297 296 290 289 289 291 296 295 286 277 266 260 261 260 256 257 250 244 241 236 239 227 219 216 223 217 213 219 215
286 286 291 291 290 287 281 281 288 290 291 287 277 268 260 255 255 252 253 242 234 226 219 217 210 210 215 217 208 203 205 217
Wind_Speed_850mb
27 19 11 23 39 46 51 51 53 56 53 52 60 57 63 64 60 56 53 44 40 39 34 34 34 33 32 29 31 32 29 23
30 20 12 14 30 48 49 48 52 60 53 53 49 52 50 48 53 58 53 50 47 39 33 27 33 28 30 27 25 28 31 29
29 17 13 12 14 33 51 57 59 67 68 49 50 50 49 48 52 59 55 52 49 43 38 36 32 30 29 30 28 29 31 33
23 17 13 15 14 20 36 51 65 69 71 70 68 62 56 59 49 55 60 58 54 45 44 42 40 35 29 27 26 28 32 29
9 7 8 9 17 22 29 41 52 73 77 75 76 74 71 67 62 66 62 57 55 49 43 43 39 35 37 32 33 37 35 32
7 4 7 16 14 26 31 35 41 58 73 67 69 76 76 71 69 72 65 60 56 44 46 51 40 37 36 30 32 34 33 33
11 5 8 16 18 16 17 27 34 32 40 59 71 78 83 82 79 75 63 52 52 42 47 55 41 32 38 32 32 32 33 38
20 16 11 9 17 15 16 20 30 55 49 52 58 62 73 78 83 76 72 71 62 42 38 46 49 45 36 34 29 38 38 35
28 23 21 19 22 20 17 19 24 37 74 73 66 63 60 62 71 83 78 81 74 67 45 72 87 37 29 53 65 54 44 42
25 21 18 19 20 25 24 20 22 29 35 47 82 73 84 71 91 87 87 94 88 77 68 86 84 48 37 71 59 58 43 43
18 17 22 25 26 29 29 27 27 28 30 37 42 47 58 55 79 89 98 93 94 78 94 93 78 60 73 77 60 58 42 42
11 9 15 22 26 27 30 30 30 28 28 33 39 43 51 61 61 60 65 89 91 97 95 81 70 68 72 65 65 60 52 39
4 9 11 17 23 29 31 32 30 30 34 33 36 44 48 48 44 66 49 69 85 87 89 84 72 77 67 74 65 62 47 38
4 9 19 24 23 26 39 41 38 32 32 38 41 42 47 49 52 53 50 47 62 86 82 76 75 74 75 69 65 60 49 42
13 23 22 25 26 26 26 32 46 41 41 37 41 47 48 52 63 61 63 54 54 66 86 83 71 70 64 68 62 53 48 43
21 23 26 30 28 28 32 35 41 49 51 49 46 47 50 49 52 61 68 73 84 86 82 69 59 63 61 63 56 49 43 41
27 31 33 32 27 30 32 35 39 45 53 59 57 55 54 54 54 57 68 78 79 79 75 71 58 57 57 57 51 45 42 39
40 41 39 37 36 35 35 36 39 41 48 58 63 59 56 56 58 59 62 70 77 69 65 61 56 56 54 56 45 42 39 38
44 49 47 45 42 41 43 45 45 44 45 49 52 62 63 57 56 59 59 64 70 64 58 55 54 52 56 55 44 39 39 36
44 48 51 52 50 47 48 45 46 46 46 48 49 51 59 63 60 59 55 54 57 52 47 46 48 50 55 50 46 39 38 36
Wind_Direction_850mb
324 323 333 224 214 201 197 201 194 194 193 198 202 204 209 211 213 216 217 221 227 232 237 242 244 251 256 265 269 268 264 247
300 312 304 269 215 213 208 205 202 196 198 200 201 202 208 209 215 217 219 225 233 234 237 241 253 249 256 251 259 261 265 255
283 289 283 274 231 215 216 216 206 207 201 205 200 204 211 214 220 229 233 235 239 243 242 249 246 252 249 252 256 257 266 267
276 270 284 264 244 242 221 222 232 222 215 212 216 214 217 218 218 228 232 240 246 243 252 258 258 254 249 251 256 261 272 261
273 290 283 263 239 246 266 234 227 232 232 225 228 230 225 236 232 237 240 243 248 257 263 265 259 254 262 269 276 276 274 271
264 335 292 270 244 228 242 256 234 228 234 236 239 240 247 239 240 243 244 246 253 261 259 253 258 255 268 257 264 278 278 271
256 287 284 279 278 259 225 226 227 219 233 239 239 238 240 244 247 247 249 251 257 254 260 264 260 257 264 255 257 263 272 273
277 292 296 300 302 298 270 236 213 220 231 230 236 238 246 248 243 247 252 253 248 240 253 263 283 265 260 273 279 280 267 261
272 284 309 314 308 304 301 271 234 211 228 232 239 240 236 236 249 241 237 253 247 248 242 263 254 254 258 290 277 277 265 262
280 281 296 316 324 306 290 281 271 234 227 230 238 247 250 245 246 241 240 243 241 238 241 243 253 245 283 273 269 273 255 251
284 289 307 313 312 303 298 282 274 270 254 241 239 241 237 244 245 248 252 244 239 238 244 239 251 247 246 251 267 262 238 246
280 296 302 296 298 295 298 290 279 275 268 260 238 239 238 239 247 256 241 244 235 229 235 243 248 262 257 261 271 256 236 230
291 307 313 318 310 299 298 296 290 278 266 258 255 249 248 249 245 241 244 235 234 240 242 253 257 256 260 270 260 248 235 230
282 312 313 309 314 310 293 291 292 290 278 266 259 255 253 245 245 239 238 234 240 237 240 252 256 262 267 259 242 240 235 248
302 309 313 302 295 299 306 298 289 288 285 275 267 262 256 255 244 242 239 234 236 244 247 252 261 259 255 246 238 235 246 249
293 301 305 311 289 292 301 304 300 291 285 282 274 268 265 259 259 250 244 246 245 250 259 261 259 252 253 236 232 235 247 252
297 306 309 308 301 287 295 300 302 298 292 280 273 268 266 262 259 263 255 246 247 256 258 260 254 241 240 228 227 238 244 241
301 302 301 307 303 296 290 293 300 300 294 284 272 265 265 264 260 258 259 252 247 242 248 252 244 231 224 225 224 231 234 227
291 294 296 297 296 290 289 289 291 296 295 286 277 266 260 261 260 256 257 250 244 241 236 239 227 219 216 223 217 213 219 215
286 286 291 291 290 287 281 281 288 290 291 287 277 268 260 255 255 252 253 242 234 226 219 217 210 210 215 217 208 203 205 217